Hourly Data Report for July 16, 2021

POND INLET A
NUNAVUT
Current Station Operator: NAVCAN

72°41'22.000" N
77°58'08.000" W
61.60 m
2403206
71095
YIO

Download Data

Hourly Data (July 2021)
Hourly Data Report for July 16, 2021
TIME
LST
Temp Definition
°C
Dew Point Definition
°C
Rel Hum Definition
%
Precip. Amount Definition
mm

Wind Dir Definition
10's deg

Wind Spd Definition
km/h
Visibility Definition
km
Stn Press Definition
kPa
Hmdx Definition


Wind Chill Definition


Weather Definition


00:00 3.4 2.7 95 0.0 21 11 16.1 98.70     Rain
01:00 3.7 3.3 97 0.2 20 15 16.1 98.68     Rain
02:00 2.7 2.3 97 0.2 23 21 16.1 98.70     LegendNANA
03:00 3.3 3.0 98 0.0 22 18 16.1 98.72     LegendNANA
04:00 2.9 2.3 96 0.0 22 18 16.1 98.77     LegendNANA
05:00 2.8 1.7 93 0.0 23 26 16.1 98.79     LegendNANA
06:00 2.6 2.0 96 0.0 24 21 16.1 98.84     Rain
07:00 3.3 2.1 92 0.0 23 17 16.1 98.89     LegendNANA
08:00 3.1 2.1 93 0.0 24 18 16.1 98.98     LegendNANA
09:00 2.8 0.6 85 0.0 24 24 16.1 99.06     LegendNANA
10:00 3.5 0.1 78 0.0 23 30 16.1 99.12     LegendNANA
11:00 2.7 0.3 84 0.0 28 21 16.1 99.19     LegendNANA
12:00 4.9 0.2 72 0.0 24 34 16.1 99.23     LegendNANA
13:00 5.2 -0.1 69 0.0 24 37 16.1 99.32     LegendNANA
14:00 5.9 1.4 73 0.0 23 37 16.1 99.42     LegendNANA
15:00 6.0 0.4 67 0.0 24 41 16.1 99.50     Rain
16:00 3.9 0.5 78 0.2 24 26 16.1 99.65     LegendNANA
17:00 5.6 -0.3 66 0.0 23 35 16.1 99.74     LegendNANA
18:00 5.6 -1.7 59 0.0 24 37 16.1 99.81     LegendNANA
19:00 5.4 -0.1 68 0.0 23 34 16.1 99.89     LegendNANA
20:00 4.6 -0.1 72 0.0 23 32 16.1 99.97     LegendNANA
21:00 4.0 -0.4 73 0.0 23 30 16.1 100.06     LegendNANA
22:00 5.1 -0.2 69 0.0 22 30 16.1 100.14     LegendNANA
23:00 4.9 -0.5 68 0.0 23 26 16.1 100.23     LegendNANA

Notes on Data Quality.

Legend

  • E = Estimated
  • M = Missing
  • NA = Not Available*
  • [empty] = Indicates an unobserved value
Date modified: